Regional Weather Roundup
Issued by NWS

Home | Current Version | Previous Version | Graphics & Text | Print | Product List | Glossary On
Versions: 1 2 3 4 5 6 7 8 9 10 11 12 13 14 15 16 17 18 19 20 21 22 23 24 25 26 27
000
ASUS45 KSLC 241710
RWRUT

UTAH REGIONAL WEATHER ROUNDUP
NATIONAL WEATHER SERVICE SALT LAKE CITY UT
1100 AM MDT TUE MAY 24 2016

UTZ001>011-023>025-241800-

NORTHERN UTAH

CITY           SKY/WX    TMP DP  RH WIND       PRES   REMARKS
BRIGHAM CITY     N/A     62  33  34 CALM      29.82
HILL AFB       PTSUNNY   61  36  39 SW8       29.83S
LOGAN          SUNNY     59  40  49 VRB5      29.83F
OGDEN          PTSUNNY   63  40  42 W6        29.81F
PROVO AIRPORT  NOT AVBL
SALT LAKE CITY PTSUNNY   68  31  25 S17       29.79F
VERNAL         SUNNY     61  32  33 SE7       29.88S
WENDOVER       PTSUNNY   61  34  36 N13G23    29.83S
HEBER CITY     PTSUNNY   59  36  41 CALM      29.85F
WEST JORDAN    MOSUNNY   64  36  34 SE15G21   29.82F

$$

UTZ012>022-026-027-241800-

SOUTHERN/CENTRAL UTAH

CITY           SKY/WX    TMP DP  RH WIND       PRES   REMARKS
BLANDING       SUNNY     64  22  20 SW14G22   30.04F
BRYCE CANYON   PTSUNNY   54  23  30 SE18G25   29.97F
CEDAR CITY     SUNNY     63  24  22 SW21G31   29.88R
DELTA          PTSUNNY   63  27  25 W13G22    29.85S
HANKSVILLE     MOSUNNY   72  21  15 SW17G24   29.87F
MILFORD        MOSUNNY   66  25  21 SW17      29.85F
MOAB/CYNLANDS  PTSUNNY   69  21  16 S7G16     29.85F
PRICE          PTSUNNY   62  21  20 SE8       29.89S
ST GEORGE      PTSUNNY   72  28  20 SW17      29.84F
KANAB          SUNNY     66  28  24 S14       29.95S

$$

REGIONAL REPORTS     COLORADO/ARIZONA

CITY           SKY/WX    TMP DP  RH WIND       PRES   REMARKS
CRAIG, CO      SUNNY     62  32  32 MISG      29.92S
GRAND JUNCTION MOSUNNY   69  27  20 W8        29.87F
RIFLE          SUNNY     66  25  21 W8        29.90F
MONTROSE       CLOUDY    70  18  13 SW18G24   29.93F
CORTEZ         SUNNY     67  22  18 SW17      29.99F
PAGE, AZ       SUNNY     71  20  14 S9        29.87F
GRAND CANYON   SUNNY     59  23  25 SW24G33   30.00F
KINGMAN        SUNNY     69  35  28 SW24G31   29.90R
FLAGSTAFF      SUNNY     53  27  36 SW18G30   30.04S

$$

REGIONAL REPORTS    NEVADA/IDAHO/WYOMING

CITY           SKY/WX    TMP DP  RH WIND       PRES   REMARKS
LAS VEGAS, NV  MOSUNNY   70  35  27 S17G26    29.78S
ELY            MOSUNNY   51  35  54 E5        29.88F
ELKO           PTSUNNY   54  38  54 NE12      29.87S
POCATELLO, ID  CLOUDY    54  43  66 NW7       29.87F
BURLEY         CLOUDY    55  39  54 VRB7      29.86S
EVANSTON, WY   CLOUDY    52  33  48 VRB5      29.93S
ROCK SPRINGS   CLOUDY    57  27  31 E10       29.92F
KEMMERER         N/A     55  30  38 SE8       29.94F

$$




USA.gov is the U.S. government's official web portal to all federal, state and local government web resources and services.